Date String (YYYY-MM-DD hh:mm:ss) UTC,Instrument flags,absolute air pressure of the measurement (hPa),sample flow rate (lpm),inlet stack bypass flow (lpm),air temperature of the measurement (°C),ambient temperature measured by the external sensor (°C),aerosol sample conditioner tube jacket temperature (°C),OPC LED temperature (°C),internal box temperature (°C),relative humidity of the measurement (%),span deviation,mass concentration of particles derived from Lorenz-Mie calculation of OPC scattering (μg/m³),mass concentration of particles derived from Lorenz-Mie calculation of OPC scattering (μg/m³),mass concentration of particles derived from Lorenz-Mie calculation of OPC scattering (μg/m³)
DateTimeUTC,F1_M11,P_M11,Q1_M11,Q2_M11,T1_M11,T2_M11,T3_M11,T4_M11,T5_M11,U1_M11,ZSPAN_M11,X2_M11,X0_M11,X1_M11
2023-06-09 22:00:00,SystemResetWarning,0830.0,5.00,000.00,029.0,026.8,000.0,037.6,030.3,18.5,0000.0,0002.69,0004.88,0001.73
2023-06-09 22:01:00,SystemResetWarning,0830.0,5.00,000.00,029.0,027.0,000.0,037.6,030.4,17.9,0000.0,0002.68,0004.83,0001.70
2023-06-09 22:02:00,SystemResetWarning,0830.0,5.00,000.00,029.0,027.2,000.0,037.6,030.5,17.6,0000.0,0002.73,0005.02,0001.67
2023-06-09 22:03:00,SystemResetWarning,0830.0,4.99,000.00,029.0,027.3,000.0,037.6,030.5,17.6,0000.0,0002.67,0004.94,0001.64
2023-06-09 22:04:00,SystemResetWarning,0830.0,5.00,000.00,029.1,027.5,000.0,037.6,030.6,17.4,0000.0,0002.57,0004.74,0001.63
2023-06-09 22:05:00,SystemResetWarning,0830.0,5.00,000.00,029.1,027.6,000.0,037.6,030.7,17.8,0000.0,0002.60,0004.78,0001.63
2023-06-09 22:06:00,SystemResetWarning,0829.9,5.00,000.00,029.1,027.7,000.0,037.6,030.7,18.4,0000.0,0002.60,0004.82,0001.62
2023-06-09 22:07:00,SystemResetWarning,0829.8,5.01,000.00,029.2,027.8,000.0,037.6,030.7,17.2,0000.0,0002.54,0004.52,0001.62
2023-06-09 22:08:00,SystemResetWarning,0829.8,5.00,000.00,029.2,027.8,000.0,037.7,030.8,16.9,0000.0,0002.57,0004.48,0001.63
2023-06-09 22:09:00,SystemResetWarning,0829.9,4.99,000.00,029.2,027.9,000.0,037.7,030.8,17.7,0000.0,0002.51,0005.68,0001.62
2023-06-09 22:10:00,SystemResetWarning,0829.9,5.00,000.00,029.3,027.9,000.0,037.7,030.9,18.2,0000.0,0002.49,0005.74,0001.59
2023-06-09 22:11:00,SystemResetWarning,0829.9,5.00,000.00,029.3,028.0,000.0,037.7,030.9,17.7,0000.0,0002.52,0005.80,0001.58
2023-06-09 22:12:00,SystemResetWarning,0829.8,5.00,000.00,029.3,028.0,000.0,037.7,030.9,17.2,0000.0,0002.50,0005.81,0001.56
2023-06-09 22:13:00,SystemResetWarning,0829.8,5.00,000.00,029.3,028.0,000.0,037.8,030.9,18.4,0000.0,0002.51,0005.81,0001.57
2023-06-09 22:14:00,SystemResetWarning,0829.8,5.00,000.00,029.4,028.1,000.0,037.8,031.0,18.1,0000.0,0002.52,0005.77,0001.56
2023-06-09 22:15:00,SystemResetWarning,0829.7,5.00,000.00,029.4,028.1,000.0,037.8,031.0,16.3,0000.0,0002.51,0005.89,0001.55
2023-06-09 22:16:00,SystemResetWarning,0829.8,4.99,000.00,029.4,028.1,000.0,037.8,031.0,15.8,0000.0,0002.52,0005.91,0001.56
2023-06-09 22:17:00,SystemResetWarning,0829.8,4.98,000.00,029.5,028.2,000.0,037.9,031.1,15.8,0000.0,0002.47,0005.78,0001.56
2023-06-09 22:18:00,SystemResetWarning,0829.8,5.00,000.00,029.5,028.2,000.0,037.9,031.1,16.9,0000.0,0002.50,0005.85,0001.57
2023-06-09 22:19:00,SystemResetWarning,0829.8,5.00,000.00,029.5,028.0,000.0,037.9,031.1,16.7,0000.0,0002.43,0005.88,0001.56
2023-06-09 22:20:00,SystemResetWarning,0829.8,5.00,000.00,029.5,025.9,000.0,037.9,031.0,16.5,0000.0,0002.40,0004.68,0001.55
2023-06-09 22:21:00,SystemResetWarning,0829.8,5.00,000.00,029.5,024.7,000.0,037.8,031.0,17.3,0000.0,0002.42,0004.38,0001.58
2023-06-09 22:22:00,SystemResetWarning,0829.9,5.01,000.00,029.4,024.8,000.0,037.8,030.7,18.2,0000.0,0002.40,0004.26,0001.60
2023-06-09 22:23:00,SystemResetWarning,0829.9,5.00,000.00,029.3,025.2,000.0,037.8,030.5,19.5,0000.0,0002.44,0004.21,0001.62
2023-06-09 22:24:00,SystemResetWarning,0829.9,5.00,000.00,029.2,025.6,000.0,037.8,030.6,20.6,0000.0,0002.42,0004.07,0001.63
2023-06-09 22:25:00,SystemResetWarning,0829.9,5.00,000.00,029.2,026.0,000.0,037.8,030.6,21.3,0000.0,0002.43,0004.28,0001.67
2023-06-09 22:26:00,SystemResetWarning,0829.9,5.01,000.00,029.2,026.4,000.0,037.8,030.6,20.8,0000.0,0002.53,0004.39,0001.72
2023-06-09 22:27:00,SystemResetWarning,0829.9,5.00,000.00,029.2,026.7,000.0,037.8,030.6,21.1,0000.0,0002.61,0004.82,0001.76
2023-06-09 22:28:00,SystemResetWarning,0829.9,5.00,000.00,029.2,026.9,000.0,037.8,030.6,19.2,0000.0,0002.73,0005.58,0001.79
2023-06-09 22:29:00,SystemResetWarning,0829.9,5.00,000.00,029.2,027.1,000.0,037.8,030.6,18.8,0000.0,0002.75,0005.73,0001.79
2023-06-09 22:30:00,SystemResetWarning,0829.8,5.00,000.00,029.2,027.3,000.0,037.8,030.7,18.8,0000.0,0002.74,0005.64,0001.80
2023-06-09 22:31:00,SystemResetWarning,0829.8,5.00,000.00,029.2,027.5,000.0,037.8,030.7,19.4,0000.0,0002.79,0005.81,0001.83
2023-06-09 22:32:00,SystemResetWarning,0829.9,5.00,000.00,029.3,027.6,000.0,037.8,030.8,18.7,0000.0,0002.78,0005.82,0001.83
2023-06-09 22:33:00,SystemResetWarning,0829.9,4.99,000.00,029.3,027.7,000.0,037.8,030.8,21.0,0000.0,0002.84,0006.00,0001.84
2023-06-09 22:34:00,SystemResetWarning,0829.9,4.99,000.00,029.3,027.8,000.0,037.8,030.9,22.7,0000.0,0002.94,0006.36,0001.90
2023-06-09 22:35:00,SystemResetWarning,0829.9,5.00,000.00,029.3,027.8,000.0,037.8,030.9,23.0,0000.0,0003.11,0006.82,0001.95
2023-06-09 22:36:00,SystemResetWarning,0829.9,5.00,000.00,029.3,027.8,000.0,037.8,030.9,23.4,0000.0,0003.20,0007.05,0002.03
2023-06-09 22:37:00,SystemResetWarning,0829.8,5.00,000.00,029.4,027.9,000.0,037.8,030.9,24.1,0000.0,0003.25,0007.41,0002.08
2023-06-09 22:38:00,SystemResetWarning,0829.8,5.00,000.00,029.4,027.9,000.0,037.8,030.9,24.2,0000.0,0003.29,0007.48,0002.14
2023-06-09 22:39:00,SystemResetWarning,0829.8,5.01,000.00,029.4,027.9,000.0,037.9,031.0,24.0,0000.0,0003.34,0007.44,0002.23
2023-06-09 22:40:00,SystemResetWarning,0829.8,5.00,000.00,029.4,028.0,000.0,037.9,031.0,24.3,0000.0,0003.49,0007.81,0002.32
2023-06-09 22:41:00,SystemResetWarning,0829.8,5.00,000.00,029.4,028.0,000.0,037.9,031.0,23.4,0000.0,0003.63,0008.15,0002.41
2023-06-09 22:42:00,SystemResetWarning,0829.8,4.99,000.00,029.4,028.0,000.0,037.9,031.0,23.9,0000.0,0003.70,0008.35,0002.50
2023-06-09 22:43:00,SystemResetWarning,0829.7,4.99,000.00,029.5,028.0,000.0,037.9,031.0,23.8,0000.0,0003.78,0008.87,0002.57
2023-06-09 22:44:00,SystemResetWarning,0829.7,4.99,000.00,029.5,028.0,000.0,037.9,031.1,23.6,0000.0,0003.86,0009.20,0002.65
2023-06-09 22:45:00,SystemResetWarning,0829.7,5.00,000.00,029.5,028.0,000.0,038.0,031.1,23.2,0000.0,0003.83,0009.05,0002.67
2023-06-09 22:46:00,SystemResetWarning,0829.7,5.00,000.00,029.5,028.1,000.0,038.0,031.1,23.2,0000.0,0003.79,0009.13,0002.68
2023-06-09 22:47:00,SystemResetWarning,0829.7,5.00,000.00,029.5,028.1,000.0,038.0,031.1,23.0,0000.0,0003.76,0009.07,0002.67
2023-06-09 22:48:00,SystemResetWarning,0829.7,5.00,000.00,029.5,028.1,000.0,038.0,031.1,22.7,0000.0,0003.74,0008.83,0002.64
2023-06-09 22:49:00,SystemResetWarning,0829.7,5.01,000.00,029.6,028.1,000.0,038.0,031.1,22.5,0000.0,0003.73,0008.67,0002.61
2023-06-09 22:50:00,SystemResetWarning,0829.7,5.00,000.00,029.6,028.1,000.0,038.0,031.1,22.2,0000.0,0003.68,0008.45,0002.56
2023-06-09 22:51:00,SystemResetWarning,0829.7,5.00,000.00,029.6,028.2,000.0,038.1,031.1,21.8,0000.0,0003.60,0008.72,0002.54
2023-06-09 22:52:00,SystemResetWarning,0829.8,5.00,000.00,029.6,028.2,000.0,038.1,031.2,21.9,0000.0,0003.52,0008.66,0002.51
2023-06-09 22:53:00,SystemResetWarning,0829.8,4.99,000.00,029.6,028.1,000.0,038.1,031.2,21.9,0000.0,0003.50,0008.62,0002.47
2023-06-09 22:54:00,SystemResetWarning,0829.8,4.99,000.00,029.7,026.2,000.0,038.0,031.2,22.5,0000.0,0003.48,0008.29,0002.47
2023-06-09 22:55:00,SystemResetWarning,0829.8,5.01,000.00,029.6,024.7,000.0,038.0,031.1,22.3,0000.0,0003.42,0007.91,0002.44
2023-06-09 22:56:00,SystemResetWarning,0829.7,5.01,000.00,029.6,024.8,000.0,038.0,031.0,22.1,0000.0,0003.41,0008.35,0002.42
2023-06-09 22:57:00,SystemResetWarning,0829.7,5.01,000.00,029.4,025.1,000.0,038.0,030.7,22.2,0000.0,0003.39,0008.17,0002.39
2023-06-09 22:58:00,SystemResetWarning,0829.7,5.00,000.00,029.4,025.5,000.0,038.0,030.7,22.9,0000.0,0003.36,0008.09,0002.36
2023-06-09 22:59:00,SystemResetWarning,0829.7,5.00,000.00,029.3,026.0,000.0,037.9,030.7,23.1,0000.0,0003.36,0008.25,0002.34
